Berlin, NH

9:29 AM EDT on April 30, 2017 (GMT -0400)
Berlin Municipal

Weather History for KBML - March, 2014

Change the Weather History Date:

Monday, March 31, 2014

  Actual Average Record
Temperature  
Mean Temperature 32 °F -  
Max Temperature 36 °F 39 °F 79 °F (1998)
Min Temperature 28 °F 20 °F 9 °F (2008)
Degree Days  
Heating Degree Days 33    
Moisture  
Dew Point 24 °F    
Average Humidity 74    
Maximum Humidity 82    
Minimum Humidity 64    
Precipitation  
Precipitation 0.00 in - - ()
Sea Level Pressure  
Sea Level Pressure 29.95 in    
Wind  
Wind Speed 8 mph (NNW)    
Max Wind Speed 20 mph    
Max Gust Speed 23 mph    
Visibility 10 miles    
Events      
Averages and records for this station are not official NWS values.
T = Trace of Precipitation, MM = Missing Value Source: NWS Daily Summary

Daily Weather History Graph

Daily Weather History Graph

Search for Another Location

Airport or City:

Trip Planner

Search our weather history database for the weather conditions in past years. The results will help you decide how hot, cold, wet, or windy it might be!

Date:

Astronomy

Mar. 31, 2014 Rise Set
Actual Time 6:27 AM EDT 7:10 PM EDT
Civil Twilight 5:58 AM EDT 7:40 PM EDT
Nautical Twilight 5:23 AM EDT 8:15 PM EDT
Astronomical Twilight 4:47 AM EDT 8:51 PM EDT
Moon 6:46 AM EDT (3/31) 8:30 PM EDT (3/31)
Length of Visible Light 13h 42m
Length of Day
12h 43m
New Moon, 1% of the Moon is Illuminated
Mar 31
New Moon
Apr 7
First Quarter
Apr 15
Full
Apr 22
Last Quarter
Apr 29
New

Hourly Weather History & Observations

Time (EDT) Temp. Windchill Dew Point Humidity Pressure Visibility Wind Dir Wind Speed Gust Speed Precip Events Conditions
12:35 AM 32.0 °F 28.7 °F 26.1 °F 79% 29.83 in 10.0 mi Variable 3.5 mph - N/A   Overcast
12:52 AM 32.0 °F 24.8 °F 26.1 °F 79% 29.88 in 10.0 mi North 8.1 mph - N/A   Overcast
1:03 AM 32.0 °F 24.8 °F 26.1 °F 79% 29.83 in 10.0 mi North 8.1 mph - N/A   Overcast
1:52 AM 32.0 °F 28.7 °F 27.0 °F 82% 29.86 in 10.0 mi Variable 3.5 mph - N/A   Overcast
2:35 AM 32.0 °F 25.6 °F 26.1 °F 79% 29.82 in 10.0 mi North 6.9 mph - N/A   Overcast
2:52 AM 32.0 °F 24.8 °F 26.1 °F 79% 29.86 in 10.0 mi North 8.1 mph - N/A   Overcast
3:04 AM 32.0 °F 24.2 °F 26.1 °F 79% 29.82 in 10.0 mi North 9.2 mph - N/A   Overcast
3:52 AM 30.9 °F 22.2 °F 25.0 °F 79% 29.86 in 10.0 mi North 10.4 mph - N/A   Overcast
4:52 AM 30.9 °F 24.3 °F 25.0 °F 79% 29.88 in 10.0 mi North 6.9 mph - N/A   Overcast
5:25 AM 30.0 °F 23.2 °F 24.1 °F 79% 29.85 in 10.0 mi NNW 6.9 mph - N/A   Overcast
5:50 AM 30.2 °F 22.6 °F 24.8 °F 80% 29.86 in 10.0 mi NNW 8.1 mph - N/A   Overcast
5:52 AM 30.0 °F 21.1 °F 24.1 °F 79% 29.90 in 10.0 mi North 10.4 mph - N/A   Overcast
6:14 AM 30.0 °F 24.1 °F 23.0 °F 75% 29.87 in 10.0 mi NNW 5.8 mph - N/A   Overcast
6:52 AM 30.0 °F 23.2 °F 23.0 °F 75% 29.94 in 10.0 mi North 6.9 mph - N/A   Overcast
7:52 AM 28.9 °F 19.8 °F 23.0 °F 78% 29.96 in 10.0 mi North 10.4 mph - N/A   Overcast
8:52 AM 30.0 °F 18.7 °F 21.9 °F 72% 29.97 in 10.0 mi North 16.1 mph 21.9 mph 0.00 in   Overcast
9:52 AM 30.0 °F 17.5 °F 21.9 °F 72% 29.99 in 10.0 mi North 19.6 mph - N/A   Overcast
10:52 AM 30.0 °F 23.2 °F 23.0 °F 75% 29.98 in 10.0 mi North 6.9 mph - N/A   Overcast
11:52 AM 33.1 °F 24.4 °F 24.1 °F 70% 29.97 in 10.0 mi North 11.5 mph - N/A   Overcast
12:52 PM 34.0 °F 26.0 °F 24.1 °F 67% 29.96 in 10.0 mi NNW 10.4 mph - N/A   Overcast
1:52 PM 35.1 °F 26.9 °F 25.0 °F 67% 29.96 in 10.0 mi NNW 11.5 mph - N/A   Overcast
2:52 PM 35.1 °F 26.9 °F 25.0 °F 67% 29.98 in 10.0 mi NNW 11.5 mph 23.0 mph N/A   Overcast
3:52 PM 36.0 °F 29.0 °F 25.0 °F 64% 30.00 in 10.0 mi North 9.2 mph 21.9 mph N/A   Overcast
4:52 PM 35.1 °F 25.5 °F 25.0 °F 67% 30.01 in 10.0 mi North 15.0 mph 21.9 mph N/A   Overcast
5:52 PM 33.1 °F 25.5 °F 25.0 °F 72% 30.03 in 10.0 mi NW 9.2 mph 17.3 mph N/A   Overcast
6:52 PM 33.1 °F 26.1 °F 24.1 °F 70% 30.06 in 10.0 mi NW 8.1 mph - N/A   Overcast
7:52 PM 33.1 °F 27.7 °F 24.1 °F 70% 30.09 in 10.0 mi NNW 5.8 mph - N/A   Overcast
8:52 PM 32.0 °F 24.8 °F 24.1 °F 73% 30.11 in 10.0 mi NNW 8.1 mph 17.3 mph N/A   Overcast
9:52 PM 32.0 °F 23.6 °F 23.0 °F 69% 30.12 in 10.0 mi NNW 10.4 mph - N/A   Overcast
10:52 PM 30.9 °F 24.3 °F 23.0 °F 72% 30.12 in 10.0 mi Variable 6.9 mph 17.3 mph N/A   Overcast
11:52 PM 30.9 °F 26.2 °F 21.9 °F 69% 30.13 in 10.0 mi NNW 4.6 mph - N/A   Overcast